Regional Weather Roundup
Issued by NWS

Home | Current Version | Previous Version | Text Only | Print | Product List | Glossary Off
Versions: 1 2 3 4 5 6 7 8 9 10 11 12 13 14 15 16 17 18 19 20 21 22 23 24 25 26 27 28 29 30 31 32 33 34 35 36 37 38 39 40 41 42 43 44 45 46 47 48 49 50

000
ASUS43 KDMX 201306
RWRIA

WEATHER ROUNDUP FOR IOWA
NATIONAL WEATHER SERVICE DES MOINES IA
700 AM CST TUE FEB 20 2018

NOTE: "FAIR" INDICATES FEW OR NO CLOUDS BELOW 12,000 FEET WITH NO
SIGNIFICANT WEATHER AND/OR OBSTRUCTIONS TO VISIBILITY.

* - THESE STATIONS ARE NOT NWS STATIONS...THUS NOT UNDER NWS
QUALITY CONTROL.  THEY ALSO DO NOT REPORT WEATHER SUCH
AS PRECIPITATION OR FOG.

IAZ001>003-012>014-020>022-031>034-043>046-201400-
   NORTHWEST IOWA

CITY           SKY/WX    TMP DP  RH WIND       PRES   REMARKS
CARROLL *      CLOUDY    21  19  93 NW15      29.89R WCI   8
CHEROKEE *     CLOUDY    15  12  89 NW8       29.92S WCI   4
DENISON *      CLOUDY    18  16  93 NW14      29.92F WCI   4
LE MARS *      FLURRIES  12   9  85 MISG      29.96S
ORANGE CITY *  FLURRIES  12  10  92 NW10      29.93F WCI  -1
SHELDON *      FLURRIES  12   9  85 MISG      29.91S
SIOUX CITY     CLOUDY    13   9  84 NW20      29.97R WCI  -5
SPENCER        CLOUDY    15  10  80 NW10      29.91R WCI   2
STORM LAKE *   PTCLDY    16  14  93 NW16      29.88F WCI   0
$$

IAZ055>058-069>071-079>083-090>094-201400-
   SOUTHWEST IOWA

CITY           SKY/WX    TMP DP  RH WIND       PRES   REMARKS
ATLANTIC *     CLOUDY    21  21 100 NW15      29.92R WCI   8
AUDUBON *      CLOUDY    21  18  86 NW6       29.89R WCI  14
CLARINDA *     MIX PCPN  25  25 100 NW15G23   29.96R WCI  12
COUNCIL BLFS * CLOUDY    19  19 100 NW16      29.95R WCI   5
CRESTON *      CLOUDY    27  25  93 NW20      29.88R WCI  13
HARLAN  *      CLOUDY    19  19 100 NW17      29.96R WCI   4
LAMONI         FRZ RAIN  30  28  92 NW13      29.84R FOG     WCI  20
RED OAK *      MIX PCPN  23  21  93 NW16      29.95R WCI  10
SHENANDOAH *   CLOUDY    23  21  93 NW13      29.96R FOG     WCI  11
$$

IAZ047>049-059>061-072>074-084-201400-
   CENTRAL IOWA

CITY           SKY/WX    TMP DP  RH WIND       PRES   REMARKS
AMES           MIX PCPN  27  24  89 NW13      29.86R WCI  16
ANKENY *       CLOUDY    27  27 100 MISG      29.88R
BOONE *        CLOUDY    25  23  93 MISG      29.85R
CHARITON *     CLOUDY    30  28  93 NW8       29.86R WCI  23
DES MOINES     FRZ RAIN  28  25  88 NW15      29.86S WCI  16
GRINNELL*      CLOUDY    31  30  99 W7        29.84S WCI  24
KNOXVILLE *    CLOUDY    30  30 100 W10       29.85R WCI  21
MARSHALLTOWN   MIX PCPN  31  30  96 W10       29.82R WCI  22
NEWTON *       CLOUDY    30  30 100 W6        29.85R WCI  24
PELLA *        CLOUDY    31  29  95 NW3       29.85S FOG
PERRY *        CLOUDY    25  24  96 NW8       29.87F WCI  16
$$

IAZ004>006-015-016-023>025-035-036-201400-
   NORTH CENTRAL IOWA

CITY           SKY/WX    TMP DP  RH WIND       PRES   REMARKS
ALGONA *       CLOUDY    18 N/A N/A NW10      29.87R WCI   6
CLARION *      CLOUDY    21  21 100 NW17      29.85R WCI   7
ESTHERVILLE    CLOUDY    14  11  87 NW14      29.90R WCI  -1
FORT DODGE *   CLOUDY    20  18  92 NW10G17   29.88R WCI   9
MASON CITY     CLOUDY    22  19  89 NW14      29.85R WCI   9
FOREST CITY *  CLOUDY    21  21 100 NW9       29.85R WCI  11
WEBSTER CITY * CLOUDY    23  21  93 NW16      29.85R WCI  10
IOWA FALLS *   CLOUDY    28  27  95 W9        29.84R WCI  20
$$

IAZ007>011-017>019-026>030-037>042-050>054-066-201400-
   NORTHEAST IOWA

CITY           SKY/WX    TMP DP  RH WIND       PRES   REMARKS
CEDAR RAPIDS   CLOUDY    33  32  96 W7        29.83R WCI  27
CHARLES CITY * CLOUDY    30  30 100 NW10      29.81S WCI  21
CLINTON *        N/A     36  36 100 MISG        N/A
DECORAH *      CLOUDY    32  32 100 CALM      29.78F
DUBUQUE        MIX PCPN  33  32  96 CALM      29.80R
MONTICELLO *   LGT RAIN  34  34 100 MISG      29.83S
OELWEIN *      CLOUDY    32  32 100 W6        29.80S WCI  26
WATERLOO       FRZ RAIN  31  30  96 W6        29.82S FOG     WCI  25
$$

IAZ064-065-067-068-078-201400-
   EAST CENTRAL IOWA

CITY           SKY/WX    TMP DP  RH WIND       PRES   REMARKS
DAVENPORT      CLOUDY    37  34  89 SE8       29.81F WCI  31
IOWA CITY      CLOUDY    35  32  88 NW5       29.86R WCI  31
MT. PLEASANT * LGT RAIN  34  34 100 NW8       29.86R WCI  27
MUSCATINE *    LGT RAIN  36  34  93 NW6       29.84R WCI  31
QUAD CITIES    CLOUDY    38  36  92 E6        29.81S WCI  33
$$

IAZ062-063-075>077-085>089-095>099-201400-
   SOUTHEAST IOWA

CITY           SKY/WX    TMP DP  RH WIND       PRES   REMARKS
BURLINGTON     CLOUDY    41  39  93 CALM      29.80S FOG
FAIRFIELD *    CLOUDY    32  32 100 NW9       29.83F WCI  24
FORT MADISON * CLOUDY    39  39 100 NW14G21   29.84R FOG     WCI  31
KEOKUK *       CLOUDY    41  41 100 NW10      29.82R
OSKALOOSA *    CLOUDY    31  30  98 NW7       29.85S WCI  24
OTTUMWA        CLOUDY    32  32 100 NW7       29.84F WCI  26
WASHINGTON *   LGT RAIN  34  34 100 NW10      29.86R WCI  26
$$

ABBREVIATIONS USED IN REMARKS
   TC - TEMPERATURES IN CELSIUS
  WCI - WIND CHILL INDEX
   HX - HEAT INDEX
  VSB - VISIBILITY
$$





USA.gov is the U.S. government's official web portal to all federal, state and local government web resources and services.